Regional Weather Roundup
Issued by NWS

Home | Current Version | Previous Version | Graphics & Text | Print | Product List | Glossary On
Versions: 1 2 3 4 5 6 7 8 9 10 11 12 13 14 15 16 17 18 19 20 21 22 23 24 25 26 27 28 29 30 31 32 33 34 35 36 37 38 39 40 41 42 43 44 45 46 47 48 49 50
000
ASUS43 KDMX 172301
RWRIA

WEATHER ROUNDUP FOR IOWA
NATIONAL WEATHER SERVICE DES MOINES IA
500 PM CST TUE JAN 17 2017

NOTE: "FAIR" INDICATES FEW OR NO CLOUDS BELOW 12,000 FEET WITH NO
SIGNIFICANT WEATHER AND/OR OBSTRUCTIONS TO VISIBILITY.

* - THESE STATIONS ARE NOT NWS STATIONS...THUS NOT UNDER NWS
QUALITY CONTROL.  THEY ALSO DO NOT REPORT WEATHER SUCH
AS PRECIPITATION OR FOG.

IAZ001>003-012>014-020>022-031>034-043>046-180000-
   NORTHWEST IOWA

CITY           SKY/WX    TMP DP  RH WIND       PRES   REMARKS
CARROLL *      CLOUDY    34  34 100 W8        30.06R WCI  27
CHEROKEE *     MOCLDY    29  29 100 SW5       30.05R WCI  24
DENISON *      CLOUDY    30  30 100 W10       30.05R FOG     WCI  21
LE MARS *      CLEAR     32  28  86 SW6       30.05S WCI  26
ORANGE CITY *  CLEAR     30  28  93 W5        30.03S WCI  25
SHELDON *      CLEAR     30  30 100 SW7       30.01R WCI  23
SIOUX CITY     CLEAR     34  29  82 SW5       30.06R WCI  30
SPENCER        CLEAR     30  28  92 W6        30.03R WCI  24
STORM LAKE *   FOG       28  28 100 W9        30.04R VSB 3/4 WCI  20
$$

IAZ055>058-069>071-079>083-090>094-180000-
   SOUTHWEST IOWA

CITY           SKY/WX    TMP DP  RH WIND       PRES   REMARKS
ATLANTIC *     CLOUDY    32  32 100 SW7       30.09R FOG     WCI  26
AUDUBON *      CLOUDY    32  28  86 CALM      30.08R FOG
CLARINDA *     CLOUDY    36  34  93 W8        30.13R WCI  29
COUNCIL BLFS * CLEAR     32  30  93 S6        30.09R WCI  26
CRESTON *      CLOUDY    32  32 100 W10       30.09S FOG     WCI  24
HARLAN  *      FOG       28  28 100 SW8       30.12R VSB 1/2 WCI  20
LAMONI         CLOUDY    35  34  96 W10       30.08R WCI  27
RED OAK *      CLOUDY    32  32 100 W7        30.11R FOG     WCI  26
SHENANDOAH *   CLOUDY    34  32  93 W7        30.12S WCI  28
$$

IAZ047>049-059>061-072>074-084-180000-
   CENTRAL IOWA

CITY           SKY/WX    TMP DP  RH WIND       PRES   REMARKS
AMES           CLOUDY    34  33  96 NW8       30.06R WCI  27
ANKENY *       CLOUDY    34  32  93 W7        30.08R WCI  28
BOONE *        CLOUDY    34  34 100 W9        30.05R FOG     WCI  26
CHARITON *     CLOUDY    36  34  93 W9        30.07S WCI  29
DES MOINES     CLOUDY    36  33  89 W7        30.08R WCI  30
GRINNELL*      CLOUDY    33  33  99 W7        30.04S FOG     WCI  27
KNOXVILLE *    CLOUDY    36  34  93 W9        30.06R FOG     WCI  29
MARSHALLTOWN   CLOUDY    33  32  96 NW9       30.03R FOG     WCI  25
NEWTON *       CLOUDY    34  32  93 W10       30.05R FOG     WCI  26
PELLA *        MOCLDY    35  33  93 W8        30.08R FOG     WCI  28
PERRY *        CLOUDY    33  33 100 W13       30.07R WCI  24
$$

IAZ004>006-015-016-023>025-035-036-180000-
   NORTH CENTRAL IOWA

CITY           SKY/WX    TMP DP  RH WIND       PRES   REMARKS
ALGONA *       FOG       32  32 100 W9        30.03R VSB 1/4 WCI  24
CLARION *      CLOUDY    32  32 100 W7        30.03R FOG     WCI  26
ESTHERVILLE    CLEAR     30  29  96 SW6       30.01S WCI  24
FORT DODGE *   CLOUDY    30  27  86 MISG      30.06R VSB 1/4
MASON CITY     CLOUDY    32  31  96 NW10      30.03R FOG     WCI  24
FOREST CITY *  CLOUDY    32  32 100 W6        30.02R FOG     WCI  26
WEBSTER CITY * CLOUDY    34  34 100 W8        30.02S FOG     WCI  27
IOWA FALLS *   CLOUDY    33  32  95 W10       30.03R FOG     WCI  25
$$

IAZ007>011-017>019-026>030-037>042-050>054-066-180000-
   NORTHEAST IOWA

CITY           SKY/WX    TMP DP  RH WIND       PRES   REMARKS
CEDAR RAPIDS   CLOUDY    33  31  92 W17       30.01R FOG     WCI  22
CHARLES CITY * FOG       32  32 100 NW14      30.00R VSB 1/2 WCI  22
CLINTON *      CLOUDY    34  33  96 W16       29.99R FOG     WCI  24
DECORAH *      FOG       34  34 100 NW10      29.96R VSB 3/4 WCI  26
DUBUQUE        CLOUDY    33  32  96 W13       29.96R FOG     WCI  24
MONTICELLO *   CLOUDY    34  32  93 W14       29.99R FOG     WCI  24
OELWEIN *      FOG       32  32 100 NW14      30.00R VSB 1/4 WCI  22
WATERLOO       CLOUDY    32  31  96 NW9G18    30.01R FOG     WCI  24
$$

IAZ064-065-067-068-078-180000-
   EAST CENTRAL IOWA

CITY           SKY/WX    TMP DP  RH WIND       PRES   REMARKS
DAVENPORT      CLOUDY    34  33  96 W13       30.01R FOG     WCI  25
IOWA CITY      CLOUDY    36  33  89 W12       30.05R FOG     WCI  28
MUSCATINE *    CLOUDY    36  34  93 W13       30.05R FOG     WCI  27
QUAD CITIES    CLOUDY    36  33  89 W13       30.01R WCI  27
$$

IAZ062-063-075>077-085>089-095>099-180000-
   SOUTHEAST IOWA

CITY           SKY/WX    TMP DP  RH WIND       PRES   REMARKS
BURLINGTON     CLOUDY    36  34  92 W8        30.05R WCI  30
FAIRFIELD *    CLOUDY    36  34  93 W10       30.06R WCI  28
FORT MADISON * CLOUDY    37  36  93 W10       30.07R WCI  30
KEOKUK *       CLOUDY    37  36  93 W10       30.06R WCI  30
OSKALOOSA *    CLOUDY    34  33  97 W10       30.07R FOG     WCI  26
OTTUMWA        CLOUDY    36  34  92 W10       30.06R FOG     WCI  28
WASHINGTON *   CLOUDY    36  36 100 W12       30.06R FOG     WCI  27
$$

ABBREVIATIONS USED IN REMARKS
   TC - TEMPERATURES IN CELSIUS
  WCI - WIND CHILL INDEX
   HX - HEAT INDEX
  VSB - VISIBILITY
$$





USA.gov is the U.S. government's official web portal to all federal, state and local government web resources and services.